Weather History for KDFW - September, 2013

Change the Weather History Date:

Saturday, September 14, 2013

  Actual Average Record
Temperature  
Mean Temperature 86 °F 79 °F  
Max Temperature 94 °F 89 °F 102 °F (1953)
Min Temperature 77 °F 68 °F 48 °F (1902)
Degree Days  
Heating Degree Days 0 0  
Month to date heating degree days 0 0  
Since 1 July heating degree days 0 0  
Cooling Degree Days 21 14  
Month to date cooling degree days 308 222  
Year to date cooling degree days 2536 2404  
Growing Degree Days 35 (Base 50)    
Moisture  
Dew Point 60 °F    
Average Humidity 46    
Maximum Humidity 58    
Minimum Humidity 33    
Precipitation  
Precipitation 0.00 in 0.09 in 2.39 in (1934)
Month to date precipitation 0.26 1.31  
Year to date precipitation 18.93 25.42  
Sea Level Pressure  
Sea Level Pressure 29.89 in    
Wind  
Wind Speed 11 mph (East)    
Max Wind Speed 17 mph    
Max Gust Speed 22 mph    
Visibility 10 miles    
Events      
T = Trace of Precipitation, MM = Missing Value Source: NWS Daily Summary

Daily Weather History Graph

Daily Weather History Graph

Search for Another Location

Airport or City:

Trip Planner

Search our weather history database for the weather conditions in past years. The results will help you decide how hot, cold, wet, or windy it might be!

Date:

Astronomy

Sep. 14, 2013 Rise Set
Actual Time 7:11 AM CDT 7:35 PM CDT
Civil Twilight 6:46 AM CDT 7:59 PM CDT
Nautical Twilight 6:17 AM CDT 8:28 PM CDT
Astronomical Twilight 5:47 AM CDT 8:58 PM CDT
Moon 4:06 PM CDT (9/14) 1:57 AM CDT (9/14)
Length of Visible Light 13h 13m
Length of Day
12h 24m
Waxing Gibbous, 72% of the Moon is Illuminated
Sep 14
Waxing Gibbous
Sep 19
Full
Sep 26
Last Quarter
Oct 4
New
Oct 11
First Quarter

Hourly Weather History & Observations

Time (CDT) Temp. Heat Index Dew Point Humidity Pressure Visibility Wind Dir Wind Speed Gust Speed Precip Events Conditions
12:53 AM 82.9 °F 84.6 °F 64.9 °F 54% 29.89 in 10.0 mi ENE 10.4 mph - N/A   Mostly Cloudy
1:53 AM 82.0 °F 83.8 °F 64.9 °F 56% 29.88 in 10.0 mi East 8.1 mph - N/A   Mostly Cloudy
2:53 AM 82.0 °F 83.4 °F 64.0 °F 54% 29.88 in 10.0 mi East 10.4 mph - N/A   Mostly Cloudy
3:53 AM 81.0 °F 82.2 °F 63.0 °F 54% 29.87 in 10.0 mi ESE 11.5 mph - N/A   Scattered Clouds
4:53 AM 80.1 °F 81.2 °F 62.1 °F 54% 29.87 in 10.0 mi East 10.4 mph - N/A   Mostly Cloudy
5:53 AM 79.0 °F - 62.1 °F 56% 29.87 in 10.0 mi East 13.8 mph - N/A   Scattered Clouds
6:53 AM 77.0 °F - 61.0 °F 58% 29.90 in 10.0 mi ESE 12.7 mph - N/A   Scattered Clouds
7:53 AM 77.0 °F - 59.0 °F 54% 29.92 in 10.0 mi ESE 15.0 mph - N/A   Mostly Cloudy
8:53 AM 78.1 °F - 57.9 °F 50% 29.93 in 10.0 mi East 16.1 mph - N/A   Scattered Clouds
9:53 AM 79.0 °F - 57.0 °F 47% 29.94 in 10.0 mi ESE 15.0 mph - N/A   Partly Cloudy
10:53 AM 82.0 °F 82.0 °F 57.9 °F 44% 29.96 in 10.0 mi ESE 12.7 mph - N/A   Scattered Clouds
11:53 AM 84.0 °F 83.5 °F 57.9 °F 41% 29.95 in 10.0 mi ESE 11.5 mph 17.3 mph N/A   Partly Cloudy
12:53 PM 87.1 °F 86.5 °F 59.0 °F 39% 29.94 in 10.0 mi East 10.4 mph - N/A   Partly Cloudy
1:53 PM 89.1 °F 88.8 °F 60.1 °F 38% 29.91 in 10.0 mi Variable 4.6 mph - N/A   Partly Cloudy
2:53 PM 91.0 °F 90.5 °F 60.1 °F 35% 29.88 in 10.0 mi ENE 9.2 mph - N/A   Partly Cloudy
3:53 PM 93.0 °F 92.7 °F 60.1 °F 33% 29.86 in 10.0 mi East 9.2 mph - N/A   Partly Cloudy
4:53 PM 93.0 °F 92.7 °F 60.1 °F 33% 29.85 in 10.0 mi NE 12.7 mph - N/A   Partly Cloudy
5:53 PM 91.9 °F 91.5 °F 60.1 °F 34% 29.84 in 10.0 mi East 11.5 mph - N/A   Partly Cloudy
6:53 PM 91.0 °F 90.5 °F 60.1 °F 35% 29.85 in 10.0 mi East 11.5 mph - N/A   Clear
7:53 PM 88.0 °F 87.6 °F 60.1 °F 39% 29.86 in 10.0 mi East 9.2 mph - N/A   Partly Cloudy
8:53 PM 87.1 °F 86.5 °F 59.0 °F 39% 29.88 in 10.0 mi East 9.2 mph - N/A   Clear
9:53 PM 86.0 °F 85.4 °F 59.0 °F 40% 29.91 in 10.0 mi ESE 10.4 mph - N/A   Clear
10:53 PM 84.0 °F 83.8 °F 59.0 °F 43% 29.92 in 10.0 mi ESE 12.7 mph - N/A   Clear
11:53 PM 82.9 °F 82.8 °F 59.0 °F 44% 29.92 in 10.0 mi ESE 12.7 mph - N/A   Clear